This is the latest recevied weather packets stored in our database for station/object N0QV. If no packets are shown the sender has not sent any weather packets the latest 10 day(s).
| Time | Temp. | Humidity | Pressure | Rain* | Wind** | Luminosity | Snow |
|---|---|---|---|---|---|---|---|
| 1778087417 | 6.67° C | 48% | 1018 hPa | 0 mm | - | 223 W/m² | - |
| 1778087115 | 6.67° C | 49% | 1018 hPa | 0 mm | - | 191 W/m² | - |
| 1778086812 | 6.67° C | 48% | 1018 hPa | 0 mm | - | 186 W/m² | - |
| 1778086510 | 6.11° C | 49% | 1017.8 hPa | 0 mm | - | 223 W/m² | - |
| 1778086206 | 5.56° C | 49% | 1018.2 hPa | 0 mm | - | 216 W/m² | - |
| 1778085903 | 6.11° C | 48% | 1018.1 hPa | 0 mm | - | 150 W/m² | - |
| 1778085601 | 6.11° C | 50% | 1018.1 hPa | 0 mm | - | 174 W/m² | - |
| 1778085295 | 6.11° C | 49% | 1018.1 hPa | 0 mm | - | 144 W/m² | - |
| 1778084990 | 6.11° C | 48% | 1018.2 hPa | 0 mm | - | 170 W/m² | - |
| 1778084688 | 6.11° C | 48% | 1018.3 hPa | 0 mm | - | 185 W/m² | - |
| 1778084385 | 6.11° C | 50% | 1018.2 hPa | 0 mm | - | 175 W/m² | - |
| 1778084083 | 6.11° C | 49% | 1018.1 hPa | 0 mm | - | 201 W/m² | - |
| 1778083781 | 5.56° C | 50% | 1018.2 hPa | 0 mm | - | 202 W/m² | - |
| 1778083478 | 5.56° C | 51% | 1018 hPa | 0 mm | - | 211 W/m² | - |
| 1778083175 | 5.56° C | 52% | 1018.1 hPa | 0 mm | - | 209 W/m² | - |
| 1778082873 | 5.56° C | 51% | 1018.2 hPa | 0 mm | - | 203 W/m² | - |
| 1778081754 | 5.56° C | 53% | 1018.2 hPa | 0 mm | - | 183 W/m² | - |
| 1778081451 | 5.56° C | 53% | 1018.1 hPa | 0 mm | - | 173 W/m² | - |
| 1778081148 | 5° C | 53% | 1018.3 hPa | 0 mm | - | 170 W/m² | - |
| 1778080846 | 5° C | 54% | 1018 hPa | 0 mm | - | 164 W/m² | - |
| 1778080544 | 5° C | 57% | 1017.9 hPa | 0 mm | - | 150 W/m² | - |
| 1778080241 | 5° C | 57% | 1018 hPa | 0 mm | - | 146 W/m² | - |
| 1778079937 | 5° C | 55% | 1018.1 hPa | 0 mm | - | 145 W/m² | - |
| 1778079634 | 5° C | 56% | 1018 hPa | 0 mm | - | 141 W/m² | - |
| 1778079331 | 5° C | 56% | 1018.2 hPa | 0 mm | - | 132 W/m² | - |
* Rain latest hour (hover to see other rain measurements)
** Current wind speed in m/s (hover to see current wind gust speed)